Погода в Подлесном

Украина / Кировоградская область     48°47′02″N   32°15′11″E
темп.,
°C
ветер,
м/с
пор.,
м/с
влажн.,
%
обл.,
%
осадки,
мм/ч
давл.,
гПа
погр.,
м
21 апреля, ср
ср2100:00+6зсз41087100 0.0 1008240
03:00+5зсз379722 0.0 1010173
06:00+4з37945 0.0 1011151
09:00+9зюз46685 0.0 1013654
12:00+13зюз675476 0.3 10131743
15:00+12з575696 0.9 10131289
18:00+12зсз475699 0.6 1014898
21:00+8зюз337362 0.6 101628
22 апреля, чт
чт2200:00+7ююз33775 0.0 101741
03:00+6ююз35815 0.0 101869
06:00+6ююз35845 0.0 101980
09:00+12ююз46635 0.0 1019392
12:00+16ююз564450 0.0 10192157
15:00+16ююз6745100 0.0 10182087
18:00+15ю585479 0.0 1018700
21:00+10ю411755 0.0 1018241
23 апреля, пт
пт2300:00+9ю5128271 0.0 1018271
03:00+8ю5118223 0.0 1017311
06:00+7ю513935 0.2 1016293
09:00+11ююз7117753 1.0 1016650
12:00+15юз81062100 0.8 10141496
15:00+10ссз5586100 3.7 1015465
18:00+6ссз7986100 0.4 1016685
21:00+4ссз5894100 5.9 1017631
24 апреля, сб
сб2400:00+4з36934 0.3 1017175
03:00+3з49930 0.3 1017232
06:00+2з48890 0.0 1017167
09:00+6з4666100 0.0 1017590
12:00+6зюз7975100 0.4 10181183
15:00+8зсз9115398 1.5 10171945
18:00+7зсз7105132 0.2 10181913
21:00+4з512643 0.2 1020349
25 апреля, вс
вс2500:00+2з411730 0.0 1020267
03:00+1з511760 0.0 1020262
06:000з410800 0.0 1020200
09:00+6з58550 0.0 1020852
12:00+9з683743 0.0 10202063
15:00+10з5847100 0.0 10192194
18:00+5сз5877100 0.6 1019792
21:00+3ююз349156 1.6 102077